Regional Weather Roundup
Issued by NWS

Home | Current Version | Previous Version | Text Only | Print | Product List | Glossary On
Versions: 1 2 3 4 5 6 7 8 9 10 11 12 13 14 15 16 17 18 19 20 21 22 23 24 25 26 27 28 29 30 31 32 33 34 35 36 37 38 39 40 41 42 43 44 45 46 47 48 49 50
000
ASUS44 KLIX 301911
RWRLA
LOUISIANA WEATHER ROUNDUP
NATIONAL WEATHER SERVICE NEW ORLEANS LA
200 PM CDT TUE JUN 30 2015

NOTE: "FAIR" INDICATES FEW OR NO CLOUDS BELOW 12,000 FEET WITH NO
      SIGNIFICANT WEATHER AND/OR OBSTRUCTIONS TO VISIBILITY.
      SKY/WX - SKY CONDITION AND SIGNIFICANT WEATHER.
      TMP - AIR TEMPERATURE.    DP   - DEWPOINT TEMPERATURE.
      RH  - RELATIVE HUMIDITY.  PRES - PRESSURE.
      HX  - HEAT INDEX.         WCI  - WIND CHILL INDEX.

*  THESE STATIONS ARE NOT NWS OR FAA STATIONS AND ARE NOT UNDER
   NWS QUALITY CONTROL.

LAZ040-048-061>063-065-066-069-302000-
SOUTHEAST LOUISIANA

CITY           SKY/WX    TMP DP  RH WIND       PRES   REMARKS
N.O. AUDUBON   NOT AVBL
N.O. INTL ARPT PTSUNNY   91  70  49 SW8       30.05F HX  96
N.O. LAKEFRONT MOSUNNY   94  72  48 N6        30.07F HX 102
N.O. DOWNTOWN* FAIR      93  70  46 SW7       30.07F HX  99
RESERVE*       NOT AVBL
SLIDELL        MOSUNNY   89  74  60 SW6       30.06F HX  98
BATON ROUGE    PTSUNNY   85  74  69 NW8       30.02F THUNDER
BOOTHVILLE     MOSUNNY   87  76  69 W10       30.11R HX  97
BELLE CHASSE   PTSUNNY   89  72  56 S10       30.06F HX  96
BOGALUSA*        N/A     90  71  52 CALM      30.08F HX  96
GALLIANO*      PTCLDY    91  70  49 W7        30.09F HX  97
NEW ROADS*     CLOUDY   N/A N/A N/A CALM      30.03F
GONZALES*      FAIR      89  74  62 S8        30.02F HX  97
HAMMOND*       MOSUNNY   81  72  74 CALM      30.07F THUNDER
HOUMA*         NOT AVBL
PORT FOURCHON* PTCLDY    88  75  66 SW12      30.10S HX  97

$$

LAZ041-044-053-054-302000-
SOUTHWEST LOUISIANA

CITY           SKY/WX    TMP DP  RH WIND       PRES   REMARKS
LAKE CHARLES   TSTM      72  68  87 N3        30.09R
LAFAYETTE      CLOUDY    82  75  79 S7        30.06S
PATTERSON      MOSUNNY   88  73  62 SW17      30.08S HX  96
SALT POINT     NOT AVBL
NEW IBERIA     TSTM      77  73  87 NW15G26   30.08R FOG
CHENAULT AIRPK TSTM      70  68  94 W13       30.08F

$$

LAZ027-028-302000-
CENTRAL LOUISIANA

CITY           SKY/WX    TMP DP  RH WIND       PRES   REMARKS
FORT POLK      MOSUNNY   90  73  57 W8        30.03S HX  98
ALEXANDRIA INT MOSUNNY   90  74  59 VRB5      30.01F HX  99
ALEXANDRIA     SUNNY     94  73  50 W6        30.02F HX 103

$$

LAZ001-002-302000-
NORTHWEST LOUISIANA

CITY           SKY/WX    TMP DP  RH WIND       PRES   REMARKS
SHREVEPORT     MOSUNNY   91  72  53 SW6       29.99F HX  98
BARKSDALE AFB  SUNNY     91  72  53 VRB3      29.99F HX  99
DTN SHREVEPORT MOSUNNY   90  71  53 W8        29.99F HX  96

$$

LAZ014-016-302000-
NORTHEAST LOUISIANA

CITY           SKY/WX    TMP DP  RH WIND       PRES   REMARKS
MONROE         PTSUNNY   93  75  55 W15       29.99F HX 104
TALLULAH       MOSUNNY   91  77  63 VRB6      30.00F HX 104

$$



USA.gov is the U.S. government's official web portal to all federal, state and local government web resources and services.